Wind_Speed
12 13 13 13 13 13 12 12 12 13 13 13 13 13 14 14 14 13 13 13 12 12 11 9 7 7 6 4 10 15 13 12 10 12 15 18 19 20 18 19 17 18 9 8 6 14 20
14 14 14 14 14 15 15 14 14 13 13 14 14 15 15 15 14 13 13 14 13 11 11 8 7 5 6 5 6 12 16 14 13 11 17 18 19 21 24 23 20 19 13 6 5 13 20
14 14 14 14 14 16 17 17 17 16 15 14 14 13 11 11 12 14 14 14 13 12 11 9 8 5 5 5 5 9 10 18 17 14 15 18 23 31 27 25 20 20 19 14 13 15 16
16 15 15 14 15 17 17 18 18 18 19 17 17 15 12 12 11 13 14 14 14 14 12 12 10 8 11 9 5 7 10 14 21 19 17 19 25 25 29 23 26 21 23 22 15 10 17
16 16 16 17 18 19 19 19 19 19 19 18 17 16 15 14 15 15 15 16 15 15 15 14 12 12 14 10 11 7 9 11 19 24 23 21 23 24 27 27 25 24 18 17 12 20 15
18 18 19 20 20 20 19 19 19 20 21 21 21 21 20 18 19 20 19 19 17 16 16 18 13 14 13 13 11 10 9 9 13 22 28 26 23 24 24 25 21 19 18 16 13 14 18
20 21 22 22 21 21 24 25 26 25 23 21 23 25 25 25 24 23 26 25 22 21 18 19 16 15 17 13 12 13 12 11 11 15 20 28 29 22 19 17 15 20 21 16 10 19 27
28 28 27 27 29 30 31 31 31 29 27 26 24 24 26 28 24 26 26 26 25 27 22 24 23 14 20 18 16 15 16 13 13 13 17 21 22 25 23 24 21 23 18 20 16 28 31
34 35 36 37 37 38 37 36 36 35 34 33 30 27 26 30 29 29 29 27 30 30 26 20 29 25 23 22 18 18 19 16 15 15 16 16 12 24 28 29 26 25 24 20 26 24 32
38 38 39 39 39 40 40 40 40 41 41 41 39 37 35 35 36 34 36 31 37 35 38 24 31 29 26 27 21 20 22 20 21 17 19 19 19 24 29 32 30 27 22 23 27 19 24
43 43 43 42 42 43 42 41 42 42 42 43 44 46 42 42 42 42 41 37 37 37 46 34 34 30 28 29 25 25 26 26 21 21 26 14 22 22 24 29 33 23 27 29 31 25 27
48 48 49 49 49 48 48 48 47 47 46 47 47 48 45 47 44 49 46 43 43 44 47 39 41 35 31 29 27 28 30 31 27 29 31 21 23 25 21 26 33 27 31 34 37 28 32
53 54 54 54 54 54 55 54 55 55 54 53 53 53 54 49 51 50 51 50 50 52 49 45 43 44 42 36 32 36 36 35 34 32 31 25 27 26 26 26 30 33 37 40 47 46 44
55 55 56 57 57 58 58 59 60 61 61 59 59 58 59 60 55 56 55 56 58 56 50 45 40 48 47 44 42 38 41 40 36 38 32 33 34 27 24 28 29 30 38 45 49 48 48
58 59 59 60 62 62 64 65 66 65 64 64 63 65 65 65 66 65 61 62 61 55 53 54 54 53 51 49 47 42 42 43 38 36 39 36 35 27 31 27 30 33 36 31 44 45 48
62 64 66 67 68 69 71 71 72 74 74 75 71 66 64 66 68 69 70 70 65 58 58 58 59 56 56 56 50 43 41 42 43 40 38 39 40 36 33 32 35 36 31 35 38 47 52
74 74 75 77 79 80 81 80 80 80 80 78 75 73 62 67 69 70 68 67 63 61 62 67 66 65 62 62 62 56 54 42 41 42 39 41 44 41 40 43 39 38 40 43 39 42 45
82 83 84 85 86 86 87 87 88 87 86 86 83 80 66 67 69 71 68 64 63 63 62 65 69 72 70 69 68 69 65 58 31 32 38 41 42 48 47 44 39 37 40 42 49 42 47
86 87 89 90 90 90 90 92 93 94 94 90 87 82 60 63 70 66 65 65 64 65 68 72 75 79 75 73 75 73 70 62 47 50 47 38 48 46 50 49 48 47 40 42 43 44 48
88 90 90 90 92 92 90 87 82 80 77 78 76 69 54 53 61 64 63 71 71 73 77 80 81 84 85 83 80 78 77 68 59 59 54 50 51 57 58 55 49 50 45 42 43 48 44
89 87 85 83 83 79 73 69 62 54 53 50 49 50 47 44 48 57 59 64 66 71 75 77 83 89 89 91 90 85 84 81 72 68 68 64 58 58 58 48 51 52 43 43 46 45 48
77 73 68 65 62 59 53 43 35 24 26 27 26 32 33 31 32 42 46 49 55 60 62 76 77 73 83 90 93 91 90 85 82 77 74 69 66 56 56 55 48 55 50 46 43 39 42
64 60 55 53 51 51 39 26 22 20 20 19 19 19 19 21 25 28 36 46 50 52 53 53 63 77 64 73 92 92 94 92 88 80 68 65 69 58 66 59 50 49 61 52 41 38 36
54 52 47 46 43 38 26 19 16 15 15 15 14 18 18 17 23 26 29 35 45 54 50 57 51 59 61 72 77 91 94 93 91 84 71 68 61 60 68 62 59 62 54 49 44 40 40
48 44 41 40 37 33 23 17 20 16 14 15 18 21 22 19 18 23 29 30 28 31 36 50 62 46 46 57 66 64 82 90 95 89 76 67 59 61 58 70 65 61 54 50 46 44 37
41 41 44 39 35 31 25 20 19 18 19 19 20 21 23 20 17 15 23 26 23 19 23 28 36 51 49 43 43 60 62 77 91 94 78 60 54 57 53 66 73 67 54 48 48 47 44
43 44 40 36 33 29 26 23 20 18 17 18 18 18 20 21 15 18 18 20 22 18 18 21 24 25 40 32 30 51 55 62 80 89 72 62 50 45 47 59 65 66 58 41 45 52 51
42 40 37 31 29 26 24 21 20 17 15 16 19 19 19 19 14 20 20 19 21 21 19 19 13 24 39 16 26 37 49 56 62 83 75 65 59 45 36 45 56 55 55 51 49 54 53
36 33 29 28 27 24 22 20 17 14 11 10 13 13 13 13 8 10 14 15 16 18 21 16 14 14 25 22 17 31 40 50 53 63 82 63 54 51 44 42 47 47 48 57 62 58 59
Wind_Direction
310 308 307 311 316 320 322 322 319 313 308 304 305 314 320 323 326 327 327 321 321 320 324 327 322 335 289 260 242 233 231 228 231 217 207 217 218 206 200 201 191 153 93 42 16 322 317
299 301 299 297 298 301 303 306 308 311 311 306 301 301 306 307 310 309 312 316 318 315 311 318 326 327 342 286 245 250 232 232 230 226 213 210 216 219 206 208 200 148 137 186 295 295 297
292 297 296 293 292 291 291 291 292 292 293 295 297 296 298 300 302 307 308 309 313 311 312 313 310 311 309 308 307 262 236 229 236 230 227 209 212 221 216 217 220 181 180 180 220 211 259
284 287 290 292 294 294 293 290 287 283 280 278 276 280 286 288 291 294 296 298 305 303 304 306 303 305 286 288 282 273 258 228 228 231 229 224 217 221 225 226 228 208 184 184 184 227 217
290 290 287 292 296 295 295 296 296 292 286 285 283 286 289 290 293 292 297 296 295 295 295 293 298 302 295 294 285 268 257 249 228 229 230 227 230 231 225 231 235 229 203 167 177 215 216
288 282 282 286 288 287 288 291 293 290 285 284 284 282 282 280 283 287 288 287 287 285 290 291 292 289 291 296 288 261 260 258 242 231 233 232 229 232 234 231 227 234 232 183 162 242 245
290 285 283 282 277 280 286 289 292 293 287 281 281 282 281 277 276 279 284 280 278 278 279 278 285 287 281 280 276 275 249 246 246 244 237 240 237 239 241 246 228 228 233 158 160 232 256
286 284 282 280 279 281 283 284 284 284 285 280 276 277 280 277 276 275 271 273 276 274 270 276 278 270 276 272 274 271 267 257 247 236 235 240 246 238 238 235 224 224 233 169 184 246 253
288 286 284 282 281 281 282 283 283 281 278 276 275 272 274 275 273 272 270 271 275 271 266 261 269 266 266 271 275 269 269 256 245 240 245 244 240 236 234 236 230 216 220 208 203 198 255
286 284 284 284 282 281 281 280 279 279 278 277 274 269 269 275 275 271 268 271 269 271 267 263 260 268 264 267 273 268 261 262 257 245 241 240 220 226 230 234 237 220 210 218 194 209 244
287 286 284 283 282 283 283 281 279 278 279 277 276 273 272 266 270 268 267 269 268 268 267 268 260 263 261 264 256 261 258 261 259 253 248 235 236 233 231 234 230 224 204 209 197 213 254
290 289 288 286 284 284 285 284 284 284 282 281 278 275 272 271 268 270 268 265 265 263 262 267 268 267 266 263 256 255 258 257 252 248 252 239 235 236 229 232 230 221 214 207 207 205 230
292 289 287 285 284 283 282 283 283 284 283 281 280 277 274 271 269 264 265 267 264 262 266 266 265 267 263 258 257 254 250 250 255 256 257 251 249 239 229 227 229 216 218 208 212 212 221
296 294 291 288 286 284 283 282 282 282 280 279 278 276 273 270 268 268 265 264 264 267 264 257 259 258 257 259 256 257 249 247 243 249 247 241 239 240 236 232 230 235 220 223 221 222 223
298 296 294 291 288 286 284 282 281 279 277 276 275 273 269 264 262 263 262 262 265 264 259 255 248 251 254 255 253 249 253 250 244 242 247 248 247 235 233 231 228 226 237 240 229 227 227
301 299 298 296 293 290 288 285 282 280 280 278 276 279 277 269 265 263 261 260 260 257 256 249 251 243 241 242 241 246 242 248 247 239 237 239 241 231 236 234 233 228 234 229 231 230 232
309 306 305 302 300 297 296 293 290 289 290 288 287 284 277 273 269 265 265 262 258 253 244 244 241 240 238 234 234 231 239 238 240 247 238 235 239 237 231 230 229 231 224 227 233 236 235
311 310 308 306 304 303 301 299 297 295 293 291 290 285 274 267 266 266 262 257 253 249 241 237 239 240 234 234 229 229 233 232 229 248 251 241 236 233 238 233 235 232 237 231 234 235 235
312 311 310 308 307 305 304 301 299 296 293 291 287 284 269 262 265 259 256 249 243 240 237 234 232 230 230 228 231 231 226 222 199 204 243 249 243 235 226 229 229 234 230 234 234 243 245
314 314 313 312 310 308 306 303 299 294 288 284 280 275 263 249 250 248 245 243 236 232 231 231 228 228 228 225 222 223 223 211 199 202 205 217 243 237 233 233 220 226 234 234 235 235 238
318 318 317 316 315 314 312 307 300 291 284 279 273 271 265 251 241 244 247 248 241 234 233 232 231 228 226 225 220 220 215 214 206 201 204 209 217 237 239 228 221 224 218 237 239 241 240
322 321 321 321 325 326 320 311 306 290 282 292 296 277 265 259 249 240 241 248 253 248 243 234 237 233 233 224 223 214 215 214 202 201 204 206 214 219 235 241 224 219 216 222 241 247 245
324 325 325 325 328 332 329 317 307 292 286 292 286 284 270 256 252 245 234 235 239 249 242 243 242 237 228 223 223 218 214 209 202 198 201 205 210 217 225 227 225 211 218 212 219 240 247
324 327 327 327 326 331 337 328 319 305 292 284 291 290 281 263 257 246 236 236 238 244 250 241 245 244 237 230 219 220 210 210 206 198 202 201 203 206 222 222 218 229 215 210 212 223 239
330 334 336 336 334 332 324 320 322 318 308 291 283 281 280 277 271 249 239 239 243 255 255 246 243 242 233 238 231 224 218 211 206 198 200 202 202 209 218 220 220 222 221 207 206 217 216
339 339 336 334 335 334 326 319 313 306 303 299 289 280 281 271 263 265 244 244 248 241 254 254 246 246 242 248 244 224 222 219 206 201 201 201 200 206 209 221 218 223 215 210 211 219 210
341 339 337 336 337 336 331 322 318 312 300 299 298 286 274 265 272 264 257 245 247 249 245 254 243 245 223 251 236 223 223 221 216 204 201 197 199 198 206 217 221 220 214 207 208 221 222
338 340 344 347 348 345 344 342 339 329 314 302 300 291 284 279 273 268 268 254 243 250 245 223 229 194 199 233 229 222 214 217 218 210 204 203 202 188 196 216 221 214 217 213 211 222 223
347 352 359 1 3 1 358 358 356 349 340 327 311 314 297 298 247 270 268 252 241 239 231 209 164 163 202 228 241 209 203 210 211 217 206 200 195 192 188 205 214 203 203 206 213 216 226
Height
5900 5899 5898 5897 5896 5895 5894 5892 5891 5890 5889 5888 5887 5885 5884 5883 5881 5880 5879 5878 5877 5876 5875 5875 5874 5873 5873 5874 5874 5875 5877 5879 5880 5881 5883 5886 5889 5890 5892 5893 5894 5896 5901 5909 5911 5905 5907
5898 5897 5895 5894 5892 5891 5890 5889 5888 5886 5886 5884 5883 5882 5881 5880 5879 5878 5876 5875 5874 5874 5872 5872 5872 5872 5872 5872 5872 5871 5875 5876 5878 5879 5880 5882 5887 5890 5890 5891 5894 5896 5900 5906 5912 5906 5907
5894 5892 5891 5890 5888 5887 5886 5885 5883 5882 5881 5880 5879 5879 5878 5877 5876 5875 5874 5873 5872 5871 5870 5870 5870 5869 5870 5870 5870 5870 5870 5873 5874 5876 5878 5881 5883 5883 5888 5889 5890 5891 5895 5900 5908 5913 5909
5891 5889 5887 5886 5884 5882 5881 5880 5878 5877 5876 5875 5874 5873 5873 5872 5872 5871 5870 5869 5869 5868 5868 5867 5867 5867 5865 5866 5868 5867 5868 5868 5870 5872 5874 5876 5878 5881 5883 5888 5887 5888 5891 5895 5901 5907 5909
5886 5884 5883 5882 5880 5879 5877 5875 5873 5872 5871 5869 5869 5868 5868 5867 5867 5866 5866 5865 5864 5864 5864 5864 5865 5865 5864 5864 5863 5864 5864 5865 5866 5867 5869 5871 5874 5878 5882 5883 5886 5888 5890 5893 5899 5902 5904
5882 5880 5879 5877 5876 5874 5873 5871 5870 5868 5867 5865 5863 5863 5863 5863 5862 5861 5860 5860 5860 5860 5859 5859 5860 5862 5862 5861 5860 5860 5860 5861 5862 5863 5865 5867 5869 5871 5875 5878 5882 5889 5892 5891 5894 5901 5901
5877 5875 5873 5871 5870 5869 5867 5866 5864 5862 5861 5859 5858 5857 5857 5856 5857 5856 5855 5855 5856 5856 5855 5855 5856 5857 5856 5857 5856 5857 5858 5858 5858 5860 5861 5863 5865 5869 5872 5877 5883 5887 5888 5889 5896 5901 5898
5872 5870 5867 5865 5863 5861 5860 5858 5856 5855 5854 5852 5851 5851 5850 5848 5850 5849 5848 5848 5848 5848 5851 5849 5850 5852 5850 5851 5853 5852 5853 5855 5855 5856 5856 5858 5860 5867 5869 5871 5875 5880 5885 5884 5890 5895 5893
5865 5863 5860 5857 5855 5852 5850 5848 5846 5845 5844 5843 5843 5844 5843 5840 5842 5841 5840 5841 5840 5839 5841 5847 5843 5845 5845 5846 5848 5849 5848 5849 5851 5852 5853 5854 5859 5860 5863 5866 5869 5875 5880 5884 5885 5888 5890
5856 5853 5850 5848 5845 5842 5839 5837 5836 5835 5833 5832 5832 5832 5833 5832 5832 5832 5830 5834 5830 5832 5828 5840 5835 5837 5839 5838 5842 5842 5843 5844 5844 5848 5848 5849 5852 5852 5855 5859 5865 5869 5877 5883 5882 5884 5883
5845 5842 5839 5836 5834 5831 5828 5826 5824 5823 5821 5820 5820 5820 5821 5821 5819 5819 5822 5824 5823 5823 5815 5827 5827 5830 5830 5832 5833 5835 5836 5838 5841 5841 5841 5848 5846 5848 5849 5853 5858 5868 5873 5877 5879 5879 5879
5832 5829 5825 5823 5820 5817 5814 5812 5810 5809 5808 5806 5806 5805 5806 5805 5809 5805 5808 5810 5811 5813 5805 5813 5813 5820 5824 5824 5825 5825 5826 5830 5834 5834 5833 5841 5841 5841 5845 5848 5850 5862 5865 5870 5874 5874 5872
5819 5815 5812 5808 5805 5802 5799 5796 5794 5793 5792 5791 5791 5790 5788 5791 5788 5793 5792 5794 5798 5796 5800 5804 5802 5804 5808 5813 5816 5813 5817 5819 5822 5826 5829 5835 5834 5836 5838 5841 5844 5849 5855 5859 5861 5859 5859
5804 5799 5795 5791 5787 5784 5782 5779 5777 5775 5773 5772 5773 5771 5772 5771 5772 5772 5776 5777 5778 5784 5788 5790 5788 5789 5791 5797 5803 5805 5805 5808 5812 5815 5821 5823 5826 5831 5835 5834 5838 5839 5846 5846 5848 5852 5858
5787 5782 5777 5772 5768 5765 5761 5758 5756 5754 5752 5751 5753 5751 5751 5749 5750 5751 5755 5756 5762 5768 5768 5766 5771 5773 5779 5781 5786 5791 5792 5796 5803 5807 5809 5816 5819 5826 5825 5830 5831 5834 5832 5846 5846 5850 5852
5770 5764 5758 5752 5747 5741 5737 5733 5730 5728 5726 5724 5728 5727 5722 5723 5724 5726 5730 5738 5740 5743 5746 5747 5751 5758 5762 5764 5763 5772 5781 5787 5789 5795 5799 5805 5808 5814 5818 5822 5822 5824 5834 5834 5833 5836 5838
5751 5743 5736 5728 5721 5715 5709 5704 5701 5698 5695 5692 5695 5697 5693 5690 5693 5697 5704 5711 5714 5717 5719 5720 5728 5737 5742 5747 5746 5751 5759 5773 5780 5782 5789 5795 5796 5804 5806 5806 5813 5817 5819 5822 5828 5829 5829
5729 5720 5711 5702 5694 5686 5678 5671 5666 5662 5658 5654 5658 5661 5659 5655 5662 5665 5673 5679 5683 5690 5693 5696 5703 5710 5720 5725 5729 5733 5743 5749 5768 5774 5774 5779 5786 5786 5791 5798 5802 5808 5811 5817 5815 5821 5823
5705 5694 5683 5672 5661 5651 5642 5635 5628 5623 5617 5617 5617 5621 5626 5619 5626 5632 5639 5647 5651 5659 5662 5667 5672 5677 5688 5702 5707 5716 5723 5736 5742 5746 5764 5770 5765 5772 5780 5784 5787 5791 5800 5805 5811 5817 5816
5682 5668 5653 5640 5627 5616 5607 5599 5592 5587 5582 5582 5581 5586 5592 5589 5594 5596 5601 5606 5611 5621 5625 5629 5637 5647 5656 5668 5681 5695 5704 5718 5723 5732 5739 5749 5750 5750 5758 5771 5781 5782 5787 5794 5800 5800 5806
5655 5640 5624 5609 5596 5587 5577 5569 5562 5557 5552 5553 5554 5559 5559 5570 5575 5574 5578 5580 5587 5597 5600 5608 5615 5615 5626 5635 5646 5665 5678 5691 5703 5713 5717 5726 5726 5736 5745 5757 5769 5773 5778 5782 5784 5792 5794
5631 5618 5607 5594 5582 5571 5560 5552 5545 5544 5542 5543 5543 5542 5547 5553 5557 5559 5565 5570 5570 5571 5578 5588 5585 5597 5602 5609 5620 5638 5654 5672 5683 5692 5700 5709 5714 5725 5731 5740 5751 5760 5767 5774 5778 5783 5787
5616 5606 5594 5583 5572 5562 5551 5545 5541 5539 5537 5537 5538 5537 5536 5541 5543 5547 5552 5552 5556 5552 5563 5569 5568 5574 5583 5589 5595 5616 5630 5651 5669 5680 5686 5694 5703 5712 5716 5728 5737 5746 5748 5760 5770 5774 5778
5607 5596 5585 5575 5567 5558 5549 5543 5540 5536 5535 5534 5534 5533 5533 5535 5534 5536 5539 5541 5543 5544 5551 5556 5554 5558 5576 5569 5582 5595 5615 5635 5651 5665 5670 5681 5688 5693 5704 5717 5722 5729 5743 5751 5759 5767 5772
5598 5588 5578 5569 5560 5554 5547 5542 5539 5535 5532 5531 5530 5529 5528 5528 5529 5529 5530 5533 5536 5536 5538 5541 5542 5547 5558 5557 5575 5588 5601 5613 5630 5646 5655 5668 5676 5684 5688 5697 5710 5721 5733 5744 5750 5756 5765
5592 5582 5573 5564 5556 5549 5544 5540 5536 5533 5530 5527 5525 5524 5522 5522 5523 5523 5524 5526 5528 5529 5530 5529 5533 5539 5546 5553 5563 5573 5584 5593 5613 5630 5649 5657 5663 5671 5678 5685 5695 5711 5726 5737 5740 5746 5752
5588 5578 5568 5560 5552 5546 5540 5536 5532 5529 5526 5524 5521 5519 5518 5517 5519 5519 5520 5521 5521 5523 5523 5524 5528 5529 5539 5548 5553 5561 5573 5581 5598 5616 5631 5638 5644 5650 5666 5678 5687 5701 5718 5726 5729 5736 5740
5584 5575 5566 5558 5551 5545 5539 5534 5529 5525 5522 5520 5518 5515 5513 5512 5514 5512 5512 5514 5516 5518 5517 5521 5523 5526 5536 5542 5546 5550 5564 5572 5586 5601 5608 5613 5626 5643 5659 5672 5680 5695 5707 5716 5720 5721 5728
5581 5573 5566 5559 5552 5545 5539 5534 5529 5525 5521 5518 5515 5512 5509 5508 5508 5508 5507 5508 5511 5512 5514 5517 5519 5524 5532 5538 5542 5547 5560 5568 5580 5594 5601 5616 5627 5634 5651 5664 5673 5686 5694 5700 5701 5711 5716